This is the latest recevied weather packets stored in our database for station/object DH1FR-13. If no packets are shown the sender has not sent any weather packets the latest 10 day(s).
| Time | Temp. | Humidity | Pressure | Rain* | Wind** | Luminosity | Snow |
|---|---|---|---|---|---|---|---|
| 1777458601 | 13.89° C | 35% | 1029.3 hPa | 0 mm | 0.45 m/s, 60° | - | - |
| 1777458001 | 13.89° C | 35% | 1029.2 hPa | 0 mm | 0.45 m/s, 56° | - | - |
| 1777457401 | 13.33° C | 36% | 1029.4 hPa | 0 mm | 0.45 m/s, 56° | - | - |
| 1777456801 | 13.89° C | 36% | 1029.3 hPa | 0 mm | 0.45 m/s, 64° | - | - |
| 1777456201 | 13.89° C | 36% | 1029.2 hPa | 0 mm | 0.45 m/s, 58° | - | - |
| 1777455601 | 13.33° C | 36% | 1029.2 hPa | 0 mm | 0.45 m/s, 57° | - | - |
| 1777455001 | 13.33° C | 37% | 1029.3 hPa | 0 mm | 0.45 m/s, 54° | - | - |
| 1777454400 | 13.33° C | 37% | 1029.2 hPa | 0 mm | 0.45 m/s, 53° | - | - |
| 1777453801 | 13.89° C | 37% | 1029.1 hPa | 0 mm | 0 m/s | - | - |
| 1777453201 | 13.89° C | 37% | 1029.2 hPa | 0 mm | 0.45 m/s, 49° | - | - |
| 1777452601 | 13.33° C | 37% | 1029.1 hPa | 0 mm | 0.45 m/s, 39° | - | - |
| 1777452001 | 12.78° C | 37% | 1029.1 hPa | 0 mm | 0 m/s | - | - |
| 1777451401 | 13.33° C | 39% | 1028.8 hPa | 0 mm | 0 m/s | - | - |
| 1777450801 | 12.22° C | 47% | 1028.7 hPa | 0 mm | 0 m/s | - | - |
| 1777450201 | 11.67° C | 48% | 1029.1 hPa | 0 mm | 0 m/s | - | - |
| 1777449601 | 11.67° C | 48% | 1028.8 hPa | 0 mm | 0 m/s | - | - |
| 1777449001 | 11.67° C | 50% | 1028.8 hPa | 0 mm | 0 m/s | - | - |
| 1777448401 | 11.11° C | 49% | 1028.6 hPa | 0 mm | 0 m/s | - | - |
| 1777447801 | 10.56° C | 50% | 1028.8 hPa | 0 mm | 0 m/s | - | - |
| 1777447201 | 10° C | 51% | 1028.5 hPa | 0 mm | 0 m/s | - | - |
| 1777446601 | 9.44° C | 51% | 1028.6 hPa | 0 mm | 0 m/s | - | - |
| 1777446001 | 8.89° C | 52% | 1028.7 hPa | 0 mm | 0 m/s | - | - |
| 1777445401 | 8.89° C | 54% | 1028.4 hPa | 0 mm | 0 m/s | - | - |
| 1777444801 | 8.33° C | 56% | 1028.4 hPa | 0 mm | 0 m/s | - | - |
| 1777444201 | 8.33° C | 56% | 1028.4 hPa | 0 mm | 0 m/s | - | - |
* Rain latest hour (hover to see other rain measurements)
** Current wind speed in m/s (hover to see current wind gust speed)